Molokai, HI

9:01 PM HST on June 27, 2017 (GMT -1000)
Molokai

Weather History for PHMK - March, 2013

Change the Weather History Date:

Sunday, March 10, 2013

  Actual Average Record
Temperature  
Mean Temperature 67 °F -  
Max Temperature 70 °F 78 °F 84 °F (1977)
Min Temperature 64 °F 62 °F 52 °F (1987)
Cooling Degree Days 2    
Growing Degree Days 17 (Base 50)    
Moisture  
Dew Point 63 °F    
Average Humidity 90    
Maximum Humidity 100    
Minimum Humidity 73    
Precipitation  
Precipitation 1.90 in - - ()
Sea Level Pressure  
Sea Level Pressure 29.98 in    
Wind  
Wind Speed 9 mph (SSE)    
Max Wind Speed 21 mph    
Max Gust Speed 26 mph    
Visibility 7 miles    
Events Rain    
Averages and records for this station are not official NWS values.
T = Trace of Precipitation, MM = Missing Value Source: NWS Daily Summary

Daily Weather History Graph

Daily Weather History Graph

Search for Another Location

Airport or City:

Trip Planner

Search our weather history database for the weather conditions in past years. The results will help you decide how hot, cold, wet, or windy it might be!

Date:

Astronomy

Mar. 10, 2013 Rise Set
Actual Time 6:40 AM HST 6:36 PM HST
Civil Twilight 6:18 AM HST 6:58 PM HST
Nautical Twilight 5:53 AM HST 7:24 PM HST
Astronomical Twilight 5:27 AM HST 7:50 PM HST
Moon 5:44 AM HST (3/10) 5:55 PM HST (3/10)
Length of Visible Light 12h 39m
Length of Day
11h 55m
Waning Crescent, 1% of the Moon is Illuminated
Mar 10
Waning Crescent
Mar 11
New
Mar 19
First Quarter
Mar 26
Full
Apr 2
Last Quarter

Hourly Weather History & Observations

Time (HST) Temp. Dew Point Humidity Pressure Visibility Wind Dir Wind Speed Gust Speed Precip Events Conditions
12:38 AM 69.8 °F 62.6 °F 78% 29.96 in 10.0 mi SSE 15.0 mph - N/A   Mostly Cloudy
12:50 AM 69.8 °F 64.4 °F 83% 29.96 in 10.0 mi SSE 13.8 mph 19.6 mph N/A   Scattered Clouds
12:54 AM 69.1 °F 64.0 °F 84% 29.97 in 10.0 mi SSE 11.5 mph - N/A   Scattered Clouds
1:54 AM 69.1 °F 63.0 °F 81% 29.94 in 10.0 mi SE 12.7 mph - N/A   Clear
2:54 AM 70.0 °F 61.0 °F 73% 29.93 in 10.0 mi SSE 9.2 mph - N/A   Partly Cloudy
3:19 AM 69.8 °F 60.8 °F 73% 29.92 in 10.0 mi South 15.0 mph 18.4 mph N/A   Mostly Cloudy
3:44 AM 66.2 °F 62.6 °F 88% 29.91 in 10.0 mi SE 8.1 mph - 0.02 in Rain Light Rain
3:54 AM 66.0 °F 63.0 °F 90% 29.93 in 10.0 mi SE 6.9 mph - 0.02 in   Overcast
4:15 AM 66.2 °F 62.6 °F 88% 29.91 in 10.0 mi South 5.8 mph - N/A   Overcast
4:54 AM 68.0 °F 63.0 °F 84% 29.92 in 10.0 mi SE 10.4 mph - N/A   Overcast
5:54 AM 66.9 °F 62.1 °F 84% 29.93 in 10.0 mi SE 11.5 mph - N/A   Mostly Cloudy
6:50 AM 68.0 °F 62.6 °F 83% 29.93 in 10.0 mi SE 10.4 mph - 0.00 in Rain Light Rain
6:54 AM 68.0 °F 63.0 °F 84% 29.95 in 10.0 mi ESE 6.9 mph - 0.00 in Rain Light Rain
7:04 AM 68.0 °F 62.6 °F 83% 29.94 in 5.0 mi ESE 9.2 mph - 0.00 in Rain Rain
7:10 AM 66.2 °F 64.4 °F 94% 29.95 in 3.0 mi ESE 9.2 mph - 0.03 in Rain Rain
7:23 AM 66.2 °F 64.4 °F 94% 29.95 in 4.0 mi East 6.9 mph - 0.22 in Rain Light Rain
7:33 AM 66.2 °F 64.4 °F 94% 29.96 in 3.0 mi WSW 5.8 mph - 0.26 in Rain Rain
7:39 AM 66.2 °F 64.4 °F 94% 29.96 in 5.0 mi Calm Calm - 0.34 in Rain Light Rain
7:54 AM 66.9 °F 64.9 °F 93% 29.98 in 5.0 mi Variable 3.5 mph - 0.42 in Rain Light Rain
7:58 AM 66.2 °F 64.4 °F 94% 29.97 in 2.5 mi South 17.3 mph - 0.01 in Rain Light Rain
8:20 AM 66.2 °F 66.2 °F 100% 29.97 in 5.0 mi Calm Calm - 0.48 in Rain Light Rain
8:49 AM 66.2 °F 64.4 °F 94% 29.98 in 5.0 mi SSE 4.6 mph - 0.52 in Rain Light Rain
8:54 AM 66.0 °F 64.0 °F 93% 30.00 in 7.0 mi SE 4.6 mph - 0.52 in   Mostly Cloudy
9:02 AM 66.2 °F 64.4 °F 94% 29.99 in 10.0 mi ESE 4.6 mph - N/A   Mostly Cloudy
9:54 AM 68.0 °F 64.9 °F 90% 30.00 in 7.0 mi SSE 5.8 mph - 0.05 in Rain Light Rain
10:03 AM 68.0 °F 64.4 °F 88% 29.98 in 7.0 mi South 8.1 mph - 0.00 in Rain Rain
10:54 AM 68.0 °F 64.0 °F 87% 30.00 in 5.0 mi SW 10.4 mph 21.9 mph 0.31 in Rain Light Rain
11:13 AM 69.8 °F 62.6 °F 78% 29.97 in 10.0 mi SSW 11.5 mph - 0.00 in   Mostly Cloudy
11:54 AM 66.9 °F 62.1 °F 84% 29.99 in 9.0 mi SSW 20.7 mph 26.5 mph 0.01 in Rain Light Rain
12:54 PM 66.9 °F 63.0 °F 87% 29.97 in 5.0 mi South 11.5 mph - 0.02 in Rain Light Rain
1:54 PM 68.0 °F 66.0 °F 93% 29.95 in 6.0 mi South 11.5 mph - 0.01 in Rain Light Rain
2:54 PM 66.9 °F 63.0 °F 87% 29.94 in 4.0 mi South 15.0 mph 19.6 mph 0.00 in Rain Light Rain
3:54 PM 66.9 °F 64.0 °F 90% 29.95 in 5.0 mi South 9.2 mph 18.4 mph 0.02 in Rain Light Rain
4:01 PM 66.2 °F 62.6 °F 88% 29.94 in 4.0 mi South 12.7 mph 17.3 mph 0.01 in Rain Rain
4:47 PM 64.4 °F 64.4 °F 100% 29.95 in 2.0 mi SE 9.2 mph - 0.10 in Rain Heavy Rain
4:54 PM 64.9 °F 63.0 °F 93% 29.96 in 2.0 mi ESE 8.1 mph - 0.14 in Rain Heavy Rain
5:08 PM 64.4 °F 62.6 °F 94% 29.95 in 3.0 mi SE 12.7 mph 19.6 mph 0.06 in Rain Rain
5:17 PM 64.4 °F 62.6 °F 94% 29.96 in 1.8 mi SE 8.1 mph - 0.11 in Rain Heavy Rain
5:31 PM 64.4 °F 62.6 °F 94% 29.96 in 2.5 mi SE 5.8 mph - 0.19 in Rain Rain
5:54 PM 64.0 °F 63.0 °F 96% 29.98 in 3.0 mi ESE 9.2 mph - 0.26 in Rain Rain
6:54 PM 64.0 °F 63.0 °F 96% 30.00 in 9.0 mi ESE 8.1 mph - 0.05 in Rain Light Rain
7:01 PM 64.4 °F 62.6 °F 94% 29.98 in 7.0 mi ESE 5.8 mph - 0.01 in Rain Light Rain
7:21 PM 64.4 °F 62.6 °F 94% 29.99 in 10.0 mi SE 8.1 mph - 0.02 in Rain Light Rain
7:37 PM 64.4 °F 62.6 °F 94% 29.99 in 10.0 mi ESE 6.9 mph - 0.02 in   Overcast
7:54 PM 64.9 °F 63.0 °F 93% 30.02 in 10.0 mi East 4.6 mph - 0.02 in Rain Light Rain
8:52 PM 64.4 °F 62.6 °F 94% 30.03 in 10.0 mi West 3.5 mph - 0.00 in   Overcast
8:54 PM 64.9 °F 63.0 °F 93% 30.05 in 10.0 mi West 3.5 mph - 0.00 in   Overcast
9:26 PM 64.4 °F 64.4 °F 100% 30.04 in 10.0 mi Calm Calm - 0.01 in Rain Light Rain
9:33 PM 66.2 °F 64.4 °F 94% 30.04 in 10.0 mi Calm Calm - 0.01 in Rain Light Rain
9:39 PM 64.4 °F 64.4 °F 100% 30.05 in 10.0 mi Calm Calm - 0.01 in Rain Light Rain
9:54 PM 64.9 °F 64.0 °F 97% 30.06 in 4.0 mi Calm Calm - 0.02 in Rain Light Rain
9:56 PM 66.2 °F 62.6 °F 88% 30.05 in 4.0 mi Calm Calm - 0.00 in Rain Light Rain
10:09 PM 66.2 °F 64.4 °F 94% 30.05 in 5.0 mi Calm Calm - 0.03 in Rain Light Rain
10:54 PM 64.9 °F 63.0 °F 93% 30.07 in 7.0 mi North 3.5 mph - 0.03 in Rain Light Rain
11:02 PM 64.4 °F 62.6 °F 94% 30.05 in 10.0 mi NNW 3.5 mph - 0.00 in   Overcast
11:45 PM 64.4 °F 62.6 °F 94% 30.05 in 5.0 mi NW 5.8 mph - 0.00 in   Overcast
11:54 PM 64.0 °F 63.0 °F 96% 30.06 in 5.0 mi NW 5.8 mph - 0.00 in   Overcast